This demonstration page uses our WeatherBlox Daily Observations layout. Learn more.

Left ArrowRight Arrow

36.17497, -115.13722

Hourly Observations for February 11, 2020

Temp ( °F °C ) Dew Point ( °F °C ) Humidity (%) Winds ( mph kmh ) Pressure ( in mb ) Visibility ( mi km ) Precip ( " mm )
12:53 am 00:53 Clear 50 10 13 -10.6 22 22 NNE 16 26 30.14 1021 10 16.0934 0 0
1:53 am 01:53 Clear 48 8.9 14 -10 25 25 N 15 24 30.14 1021 10 16.0934 0 0
2:53 am 02:53 Clear 47 8.3 13 -10.6 25 25 NNW 18 30 30.15 1021 10 16.0934 0 0
3:53 am 03:53 Clear 47 8.3 11 -11.7 23 23 NNW 17 28 30.17 1022 10 16.0934 0 0
4:53 am 04:53 Clear 46 7.8 10 -12.2 23 23 NNW 16 26 30.17 1022 10 16.0934 0 0
5:53 am 05:53 Clear 44 6.7 10 -12.2 25 25 NNW 20 31 30.19 1023 10 16.0934 0 0
6:53 am 06:53 Sunny 44 6.7 9 -12.8 24 24 N 15 24 30.21 1023 10 16.0934 0 0
7:53 am 07:53 Sunny 47 8.3 9 -12.8 21 21 NNW 24 39 30.22 1023 10 16.0934 0 0
8:53 am 08:53 Sunny 49 9.4 9 -12.8 20 20 NNW 17 28 30.24 1024 10 16.0934 0 0
9:53 am 09:53 Sunny 52 11.1 7 -13.9 16 16 NNW 16 26 30.23 1024 10 16.0934 0 0
10:53 am 10:53 Sunny 53 11.7 5 -15 14 14 NNW 23 37 30.21 1023 10 16.0934 0 0
11:53 am 11:53 Sunny 56 13.3 3 -16.1 11 11 NNW 20 31 30.18 1022 10 16.0934 0 0
12:53 pm 12:53 Sunny 57 13.9 3 -16.1 11 11 NNW 10 17 30.14 1021 10 16.0934 0 0
1:53 pm 13:53 Sunny 59 15 1 -17.2 9 9 NNW 14 22 30.11 1020 10 16.0934 0 0
2:53 pm 14:53 Sunny 61 16.1 -1 -18.3 8 8 NW 13 20 30.09 1019 10 16.0934 0 0
3:53 pm 15:53 Sunny 60 15.6 -1 -18.3 8 8 NW 18 30 30.07 1018 10 16.0934 0 0
4:53 pm 16:53 Sunny 59 15 1 -17.2 9 9 NW 7 11 30.06 1018 10 16.0934 0 0
5:53 pm 17:53 Clear 57 13.9 3 -16.1 11 11 Calm 30.08 1019 10 16.0934 0 0
6:53 pm 18:53 Clear 53 11.7 4 -15.6 13 13 NNW 6 9 30.09 1019 10 16.0934 0 0
7:53 pm 19:53 Clear 51 10.6 5 -15 15 15 NNW 7 11 30.09 1019 10 16.0934 0 0
8:53 pm 20:53 Clear 47 8.3 7 -13.9 19 19 W 7 11 30.09 1019 10 16.0934 0 0
9:53 pm 21:53 Clear 47 8.3 7 -13.9 19 19 WNW 6 9 30.09 1019 10 16.0934 0 0
10:53 pm 22:53 Clear 45 7.2 8 -13.3 22 22 NNW 8 13 30.1 1019 10 16.0934 0 0
11:53 pm 23:53 Clear 43 6.1 8 -13.3 24 24 WNW 7 11 30.09 1019 10 16.0934 0 0

Powered by AerisWeather